ARIANE 1 DEB, 25768

Orbit data source: Space-Track

ARIANE 1 DEB, 25768 is space debris in HEO originally from a launch on Mon, 24 Dec 1979 UTC launched from the French Guiana (FRGUI). Debris objects in space refer to the collection of defunct objects orbiting the Earth. Examples of debris include non-operational satellites, rocket bodies, and fragments generated from explosions, collisions, or faulty payload assembly.

Loading next visibility...
Identifier
25768, 1979-104K
Orbit
HEO
Country
Flag of FRFR
Related business
Manufacturer
Unknown
Mission
Spacecraft
Bus & Motor
Unknown
Mass
Unknown
Launch date (UTC)
1979-12-24 (46 years ago)
Launch vehicle
Unknown
Launch site
French Guiana (FRGUI)
Object type
Payload
Rocket body
Debris
Shape & HBR
Unknown shape, 0.2 m
Radar Cross Section
Medium (>0.1 m² and <1 m²)

Expand to show TLE details & history
Last TLE update: 11 hours ago

TLE from 11 hours ago
0 ARIANE 1 DEB
1 25768U 79104K   25295.50710029 -.00000812  00000-0 -61395-2 0  9995
2 25768  17.7058  61.0567 5212777  52.3068 266.6879  4.82153464232433
Epoch: 2025-10-22T12:10Z
TLE epoch observation values (Epoch: 2025-10-22T12:10:13.465Z)
Latitude
-17.72676°
Longitude
115.92527°
Altitude
12,198.234 km
Speed
3.999 km/s
True Right ascension
21h 58m 38s
True Declination
-17° 41' 19"
Sunlit
Object was in daylight at epoch
Visualization orbit readout
Latitude
Unknown
Longitude
Unknown
Altitude
Unknown
Speed
Unknown
Apparent Right ascension
Unknown
Apparent Declination
Unknown
Sunlit
N/A
Visualization observer readout
Local Sidereal Time
18:03:00
Azimuth
Unknown
Elevation
Unknown
Doppler factor
Unknown
Orbital elements
Apogee altitude
16,143.922 km
Perigee altitude
709.203 km
Semi-major axis
14,804.699 km
Eccentricity
0.52128
Inclination
17.7058°
RAAN
61.0567°
Arg. of periapsis
52.3068°
True anomaly
216.33503°
Mean anomaly
266.6879°
Eccentric anomaly
240.65363°
Mean motion
1.20488 °/min
Orbital period
298.78 mins
BSTAR
-0.0061395
Loading maneuver chart data...
Computing Atmospheric mass density...
Loading historical data...
Loading historical data...
Loading historical data...
Loading historical data...
Loading historical data...
Loading historical data...
Loading historical data...

Documentation

Showing up to 5 results
|